Flag for Germany Weather past 2 weeks in Stade, Lower Saxony, Germany

Now
41 °F

Partly sunny.


Feels Like: 36 °F
Forecast: 42 / 49 °F
Wind: 8 mph from Southwest

Location: Hamburg-Fuhlsbuettel

Current Time: Mar 28, 2015 at 6:44:45 AM

Latest Report: Mar 28, 2015 at 6:20 AM


Visibility: 4 mi

Pressure: 30.12 "Hg

Humidity: 93%

Dew point: 39 °F

Location of StadeLocation

Historic Weather in Stade — Graph

°F

Stade temperature yesterday

Maximum temperature yesterday: 46 °F (at 10:50 AM)
Minimum temperature yesterday: 41 °F (at 12:20 AM)
Average temperature yesterday: 44 °F

Past Weeks' High & Low Weather Summary

 TemperatureHumidityPressure
High59 °F (Mar 17, 2:50 PM)100% (Mar 20, 6:20 AM)30.48 "Hg (Mar 20, 6:20 AM)
Low28 °F (Mar 20, 6:20 AM)27% (Mar 19, 2:50 PM)29.65 "Hg (Mar 25, 5:20 PM)
Average43 °F74%30.15 "Hg
* Reported Mar 13 5:20 AM — Mar 28 5:20 AM, Stade, Weather by CustomWeather, © 2015

Note: Actual official high and low records may vary slightly from our data, if they occured in-between our weather recording intervals... More about our weather records

Advertising

Stade weather history for previous 24 hours

 ConditionsComfort  
Time TempWeatherWind HumidityBarometerVisibility
5:20 AM
Sat, Mar 28
41 °FPassing clouds.6 mph93%30.12 "Hg5 mi
4:50 AM41 °FPartly cloudy.6 mph93%30.12 "Hg5 mi
4:20 AM41 °FPartly cloudy.5 mph93%30.12 "Hg5 mi
3:50 AM41 °FPassing clouds.5 mph93%30.12 "Hg6 mi
3:20 AM41 °FPassing clouds.3 mph93%30.12 "HgN/A
2:50 AM41 °FPassing clouds.6 mph87%30.12 "HgN/A
2:20 AM41 °FPartly cloudy.5 mph87%30.12 "HgN/A
1:50 AM41 °FPassing clouds.7 mph87%30.12 "HgN/A
1:20 AM43 °FPassing clouds.9 mph81%30.12 "HgN/A
12:50 AM43 °FPassing clouds.9 mph81%30.12 "HgN/A
12:20 AM43 °FPartly cloudy.10 mph81%30.09 "HgN/A
11:50 PM
Fri, Mar 27
43 °FPassing clouds.10 mph87%30.09 "HgN/A
11:20 PM43 °FPartly cloudy.12 mph87%30.09 "Hg6 mi
10:50 PM43 °FPassing clouds.12 mph87%30.07 "Hg4 mi
10:20 PM43 °FPassing clouds.12 mph87%30.07 "Hg4 mi
9:50 PM43 °FPassing clouds.12 mph93%30.07 "Hg4 mi
9:20 PM43 °FPassing clouds.12 mph93%30.04 "Hg4 mi
8:50 PM45 °FPassing clouds.13 mph87%30.04 "Hg4 mi
8:20 PM45 °FPassing clouds.13 mph87%30.04 "Hg6 mi
7:50 PM45 °FPartly cloudy.12 mph87%30.01 "HgN/A
7:20 PM45 °FPassing clouds.13 mph87%29.98 "HgN/A
6:50 PM45 °FPassing clouds.10 mph87%29.98 "HgN/A
6:20 PM46 °FScattered clouds.12 mph76%29.95 "HgN/A
5:50 PM46 °FScattered clouds.9 mph82%29.95 "HgN/A
5:20 PM46 °FScattered clouds.9 mph82%29.92 "HgN/A
4:50 PM46 °FScattered clouds.7 mph76%29.92 "HgN/A
4:20 PM45 °FSprinkles. Broken clouds.10 mph81%29.89 "HgN/A
3:50 PM45 °FScattered showers. Broken clouds.7 mph87%29.89 "HgN/A
3:20 PM46 °FScattered showers. Broken clouds.6 mph76%29.89 "HgN/A
2:50 PM45 °FScattered showers. Partly sunny.7 mph81%29.86 "HgN/A
2:20 PM46 °FScattered showers. Broken clouds.9 mph71%29.86 "HgN/A
1:50 PM46 °FScattered showers. Partly sunny.12 mph76%29.83 "HgN/A
1:20 PM46 °FScattered showers. Broken clouds.9 mph76%29.83 "HgN/A
12:50 PM46 °FScattered showers. Broken clouds.10 mph76%29.83 "HgN/A
12:20 PM45 °FScattered showers. Partly sunny.14 mph81%29.83 "HgN/A
11:50 AM43 °FScattered showers. Partly sunny.7 mph93%29.83 "HgN/A
11:20 AM45 °FSprinkles. Broken clouds.14 mph76%29.83 "HgN/A
10:50 AM46 °FBroken clouds.15 mph82%29.80 "HgN/A
10:20 AM45 °FBroken clouds.15 mph87%29.80 "HgN/A
9:50 AM45 °FBroken clouds.12 mph81%29.80 "HgN/A
9:20 AM45 °FBroken clouds.9 mph87%29.77 "HgN/A
8:50 AM43 °FPartly sunny.9 mph93%29.77 "HgN/A
8:20 AM43 °FLight rain. Partly sunny.13 mph93%29.77 "Hg4 mi
7:50 AM43 °FBroken clouds.12 mph93%29.77 "Hg5 mi
7:20 AM43 °FBroken clouds.10 mph93%29.74 "Hg5 mi
6:50 AM43 °FBroken clouds.10 mph93%29.74 "Hg4 mi
6:20 AM41 °FPartly sunny.10 mph93%29.74 "Hg4 mi
Weather by CustomWeather, © 2015

See weather overviewHow to use our weather pages